sat.trackr.live / text

‹ back to catalog

UNKNOWN

NORAD 84406

UNKNOWN UNKNOWN UNKNOWN

§ Identity

Operator
Country
Launch date
Launch site
Launch vehicle
Mass (kg)
RCS (m²)

External: N2YO · Heavens-Above

§ Orbital elements

Epoch: 2026-05-24T05:08:22.407072Z

Period
113.60 min
Inclination
101.7309°
Eccentricity
0.0046700
Mean motion
12.67571040 rev/d
Perigee alt
1,355.6 km
Apogee alt
1,428.1 km
Semi-major
7,770.0 km
B*
1.6287e-3
RAAN
295.5338°
Arg perigee
83.7482°
Mean anomaly
90.8051°
Rev number
6,987

§ Raw data

UNKNOWN1 84406U          26144.21414823  .00000268  00000+0  16287-2 0  99952 84406 101.7309 295.5338 0046700  83.7482  90.8051 12.67571040 69875

JSON: /api/v1/satellites/84406 · /tle

For live sub-satellite position, see the globe view (requires WebGL).

§ Visibility from observer

Set your observer location to see the next 7 days of passes ≥ 10°. The values pass through the URL so the page stays shareable.

No JS? Fill the form by hand. The geolocation button needs JavaScript.